Weather History for McConnell AFB, KS

Change the Weather History Date:

Thursday, November 1, 2012

  Actual Average Record
Temperature  
Mean Temperature 59 °F -  
Max Temperature 75 °F 59 °F 76 °F (2008)
Min Temperature 43 °F 41 °F 24 °F (2006)
Degree Days  
Heating Degree Days 6    
Growing Degree Days 9 (Base 50)    
Moisture  
Dew Point 37 °F    
Average Humidity 46    
Maximum Humidity 75    
Minimum Humidity 27    
Precipitation  
Precipitation 0.00 in - - ()
Sea Level Pressure  
Sea Level Pressure 29.98 in    
Wind  
Wind Speed 4 mph (South)    
Max Wind Speed 8 mph    
Max Gust Speed -    
Visibility 10 miles    
Events      
Averages and records for this station are not official NWS values.
T = Trace of Precipitation, MM = Missing Value Source: NWS Daily Summary

Daily Weather History Graph

Daily Weather History Graph

Search for Another Location

Airport:

Trip Planner

Search our weather history database for the weather conditions in past years. The results will help you decide how hot, cold, wet, or windy it might be!

Date:

Astronomy

Nov. 01, 2012 Rise Set
Actual Time 7:54 AM CDT 6:30 PM CDT
Civil Twilight 7:27 AM CDT 6:57 PM CDT
Nautical Twilight 6:56 AM CDT 7:28 PM CDT
Astronomical Twilight 6:26 AM CDT 7:58 PM CDT
Moon 8:30 PM CDT (11/1) 10:25 AM CDT (11/1)
Length of Visible Light 11h 29m
Length of Day
10h 35m
Waning Gibbous, 93% of the Moon is Illuminated
Nov 1
Waning Gibbous
Nov 6
Last Quarter
Nov 13
New
Nov 20
First Quarter
Nov 28
Full

Hourly Weather History & Observations

Time (CDT) Temp. Windchill Dew Point Humidity Pressure Visibility Wind Dir Wind Speed Gust Speed Precip Events Conditions
12:55 AM 51.6 °F - 34.5 °F 52% 30.04 in 10.0 mi SE 3.5 mph - N/A   Clear
1:55 AM 50.4 °F - 33.4 °F 52% 30.03 in 10.0 mi SSE 5.8 mph - N/A   Clear
2:55 AM 48.7 °F - 33.1 °F 55% 30.02 in 10.0 mi SSE 4.6 mph - N/A   Clear
3:55 AM 49.8 °F - 32.4 °F 51% 30.01 in 10.0 mi Calm Calm - N/A   Clear
4:55 AM 47.8 °F - 33.1 °F 57% 30.01 in 10.0 mi East 3.5 mph - N/A   Clear
5:55 AM 46.4 °F 45.2 °F 33.6 °F 61% 30.02 in 10.0 mi South 3.5 mph - N/A   Clear
6:55 AM 45.7 °F 42.7 °F 33.4 °F 62% 30.01 in 10.0 mi South 5.8 mph - N/A   Clear
7:55 AM 43.5 °F 39.4 °F 34.2 °F 70% 30.02 in 10.0 mi South 6.9 mph - N/A   Clear
8:55 AM 45.9 °F 42.9 °F 38.5 °F 75% 30.03 in 10.0 mi SSW 5.8 mph - N/A   Clear
9:55 AM 54.9 °F - 36.3 °F 50% 30.04 in 10.0 mi WSW 6.9 mph - N/A   Clear
10:55 AM 60.8 °F - 37.6 °F 42% 30.03 in 10.0 mi SSW 6.9 mph - N/A   Clear
11:55 AM 65.1 °F - 38.8 °F 38% 30.03 in 10.0 mi SW 5.8 mph - N/A   Clear
12:55 PM 69.8 °F - 40.5 °F 34% 30.00 in 10.0 mi Variable 6.9 mph - N/A   Clear
1:55 PM 72.5 °F - 40.3 °F 31% 29.97 in 10.0 mi SSW 8.1 mph - N/A   Clear
2:55 PM 74.1 °F - 39.7 °F 29% 29.95 in 10.0 mi SSW 5.8 mph - N/A   Clear
3:55 PM 75.2 °F - 39.6 °F 28% 29.93 in 10.0 mi Variable 3.5 mph - N/A   Clear
4:55 PM 73.9 °F - 37.9 °F 27% 29.92 in 10.0 mi Calm Calm - N/A   Clear
5:55 PM 71.8 °F - 40.1 °F 32% 29.92 in 10.0 mi SSE 4.6 mph - N/A   Clear
6:55 PM 66.2 °F - 40.5 °F 39% 29.93 in 10.0 mi Calm Calm - N/A   Clear
7:55 PM 65.8 °F - 38.7 °F 37% 29.93 in 10.0 mi East 3.5 mph - N/A   Clear
8:55 PM 61.3 °F - 40.3 °F 46% 29.93 in 10.0 mi Calm Calm - N/A   Clear
9:55 PM 59.4 °F - 39.9 °F 49% 29.93 in 10.0 mi Calm Calm - N/A   Clear
10:55 PM 61.0 °F - 39.4 °F 45% 29.93 in 10.0 mi SSE 4.6 mph - N/A   Clear
11:55 PM 60.4 °F - 39.7 °F 46% 29.92 in 10.0 mi ESE 5.8 mph - N/A   Clear